RH
59 58 51 51 48 41 43 41 38 37 51 72 71 70 66 50 60 70 73 69 67 62 66 64 69 79 68 51 33 27 30 32 31 28 31 32 26 16 15 24 34 41 45 48
64 55 55 53 51 55 57 55 45 37 44 69 81 78 68 68 52 73 77 73 66 63 63 62 63 73 74 63 37 28 28 33 32 29 32 33 28 19 15 23 35 42 46 48
66 52 49 52 52 57 60 63 52 44 45 55 83 68 74 63 49 63 73 72 67 62 56 59 58 62 75 69 46 29 26 30 34 33 33 35 34 24 19 23 36 42 46 49
69 65 66 65 63 70 68 52 50 54 57 52 72 90 71 77 58 47 64 70 64 60 54 54 53 53 65 69 62 37 25 27 34 34 32 31 28 22 21 27 34 40 46 49
65 71 76 74 64 72 60 60 65 66 62 65 50 96 62 70 64 44 52 63 61 58 52 52 51 45 50 67 68 50 32 26 32 32 30 30 26 25 30 29 31 36 44 47
74 80 87 79 78 83 79 85 82 84 84 80 43 92 60 59 40 36 34 42 53 59 52 50 50 47 46 59 73 59 40 23 27 29 27 26 24 31 34 34 33 36 41 44
82 83 93 93 94 92 90 95 98 96 96 57 47 90 63 54 51 44 37 37 51 59 52 48 47 46 45 47 62 68 45 31 24 26 27 27 32 35 35 36 36 37 38 41
88 82 92 95 91 85 86 90 95 84 82 41 56 87 83 67 62 53 43 42 54 63 54 48 44 45 44 42 50 68 59 37 30 30 31 34 38 37 36 37 39 40 41 41
97 93 92 96 95 80 79 96 65 90 82 96 86 90 78 65 57 48 50 50 52 58 56 47 46 46 43 44 43 56 69 52 35 35 40 41 38 39 38 40 42 45 47 48
97 96 96 99 97 80 86 66 82 84 96 96 98 96 81 59 54 51 49 58 56 58 59 54 50 46 42 44 45 48 60 67 49 43 40 41 42 44 44 45 46 47 49 54
98 98 98 98 93 63 64 91 81 79 83 97 97 86 64 60 57 60 60 54 55 60 64 59 53 51 45 47 50 52 55 63 69 55 46 44 45 46 47 48 50 53 56 62
98 98 98 98 97 73 82 92 87 89 95 82 85 77 71 60 57 59 67 61 65 71 71 68 60 60 56 53 53 55 59 59 68 76 71 58 56 55 55 57 59 61 61 69
97 91 93 95 97 90 91 94 89 81 89 98 97 77 81 67 64 65 69 72 74 78 79 75 70 67 67 63 64 63 64 65 65 69 77 77 77 72 66 67 69 70 74 79
98 97 87 89 89 92 85 90 94 95 98 95 92 88 89 81 66 60 65 65 68 73 77 77 78 79 76 73 72 72 72 72 73 77 75 75 77 77 81 91 83 86 82 86
94 97 98 93 89 92 96 99 99 99 94 99 92 91 91 87 77 73 77 75 73 72 72 75 85 83 81 80 81 82 82 81 79 79 80 78 79 82 84 85 85 87 90 87
96 97 98 97 97 96 98 98 99 99 99 99 99 99 97 96 90 90 86 88 88 86 87 82 79 79 86 83 86 91 91 90 86 84 83 86 87 89 91 91 92 94 96 96
95 98 97 97 98 98 94 97 98 98 97 98 98 99 98 98 97 97 93 89 91 91 91 91 92 91 87 89 90 83 83 85 90 90 90 91 92 94 95 94 94 96 97 99
93 93 94 96 93 95 98 98 96 92 94 97 96 95 98 98 96 92 91 93 88 86 88 90 90 90 88 84 85 91 91 89 87 84 82 81 87 93 96 96 97 98 97 94
89 90 94 94 96 98 96 95 94 89 89 88 88 88 93 96 93 91 90 87 86 86 83 81 81 84 88 90 89 84 84 89 89 87 88 92 93 90 84 81 82 82 81 86
78 83 89 93 94 97 98 89 86 85 86 87 86 85 84 86 84 82 79 80 83 82 81 82 81 80 79 76 81 83 81 78 80 83 81 73 77 83 85 85 87 87 85 88
78 83 87 88 94 94 87 85 81 90 87 89 87 84 82 82 80 77 73 69 68 69 69 70 69 71 73 76 77 74 75 79 78 75 76 78 73 69 75 81 84 85 87 88
69 76 78 85 86 90 85 81 84 85 88 86 82 79 77 74 71 66 62 62 61 59 60 61 61 63 64 64 66 67 69 72 71 73 75 75 77 77 77 74 74 79 79 82
59 60 62 69 82 82 83 81 80 76 71 64 55 54 52 50 45 41 39 39 38 39 39 39 37 37 39 42 46 53 56 59 62 63 63 66 68 72 77 79 82 85 88 89
45 53 56 47 47 52 53 57 64 59 52 45 40 39 37 35 31 28 26 25 26 26 27 27 28 27 26 27 27 27 29 33 40 51 60 59 58 59 63 69 76 88 90 91
27 35 43 45 42 43 43 43 42 41 39 37 36 35 32 29 27 25 23 23 23 23 22 21 22 22 22 22 23 24 23 23 23 24 28 41 55 60 61 60 65 73 79 84
24 22 25 22 25 33 37 40 39 39 36 34 31 28 27 26 25 24 23 23 22 23 23 23 24 25 24 24 23 23 23 23 22 21 22 24 29 41 51 58 61 64 75 84